Regional Weather Roundup
Issued by NWS

Home | Current Version | Previous Version | Text Only | Print | Product List | Glossary On
Versions: 1 2 3 4 5 6 7 8 9 10 11 12 13 14 15 16 17 18 19 20 21 22 23 24 25 26 27 28
000
ASPQ40 PGUM 201112
RWRPQ
WEATHER ROUNDUP FOR THE MARIANAS AND MICRONESIA
NATIONAL WEATHER SERVICE TIYAN GU
900 PM CHST WED SEP 20 2017

GUZ001>004-201200-
MARIANA ISLANDS-

CITY           SKY/WX    TMP DP  RH WIND       PRES   REMARKS
GUAM AIRPORT   CLEAR     81  77  89 SE3       29.86R
ANDERSEN AFB   PTCLDY    81  75  83 S8        29.86R
ROTA AIRPORT   NOT AVBL
TINIAN AP      NOT AVBL
SAIPAN AP      MOCLDY    82  79  89 E9        29.84R HX  93

$$

PMZ161-201200-
REPUBLIC OF PALAU-

CITY           SKY/WX    TMP DP  RH WIND       PRES   REMARKS
KOROR AP       LGT RAIN  77  75  94 NW7G17    29.77R
KOROR WSO      LGT RAIN  79  77  94 NE6       29.78S

$$

PMZ171>174-201200-
FEDERATED STATES OF MICRONESIA-

CITY           SKY/WX    TMP DP  RH WIND       PRES   REMARKS
YAP AIRPORT    MOCLDY    81  75  83 VRB5      29.76R
CHUUK AP       MOCLDY    84  81  89 VRB6      29.85R HX  98
POHNPEI AP     MOCLDY    82  77  83 NE7       29.84R HX  91
POHNPEI WSO    CLOUDY    82  77  83 NE6       29.87R HX  91
KOSRAE AP      NOT AVBL

$$

PMZ181-201200-
REPUBLIC OF THE MARSHALL ISLANDS-

CITY           SKY/WX    TMP DP  RH WIND       PRES   REMARKS
KWAJALEIN AP   CLEAR     82  77  83 E12       29.83R HX  91
MAJURO AP      NOT AVBL
MAJURO WSO     CLOUDY    81  77  89 SE9       29.81R

$$





USA.gov is the U.S. government's official web portal to all federal, state and local government web resources and services.